This demonstration page uses our WeatherBlox Daily Observations layout. Learn more.

Left ArrowRight Arrow

38.83388, -104.82136

Hourly Observations for January 11, 2022

Temp ( °F °C ) Dew Point ( °F °C ) Humidity (%) Winds ( mph kmh ) Pressure ( in mb ) Visibility ( mi km ) Precip ( " mm )
12:54 am 00:54 Clear 25 -3.9 13 -10.6 60 60 NNE 7 11 30.34 1027 10 16 0.00 0.00
1:54 am 01:54 Clear 25 -3.9 11 -11.7 55 55 NE 9 15 30.32 1027 10 16 0.00 0.00
2:54 am 02:54 Clear 32 0 6 -14.4 33 33 NNW 5 7 30.28 1025 10 16 0.00 0.00
3:54 am 03:54 Clear 37 2.8 1 -17.2 22 22 NNW 8 13 30.24 1024 10 16 0.00 0.00
4:54 am 04:54 Clear 33 0.6 2 -16.7 26 26 N 10 17 30.30 1026 10 16 0.00 0.00
5:54 am 05:54 Mostly Clear 33 0.6 -1 -18.3 23 23 N 8 13 30.33 1027 10 16 0.00 0.00
6:54 am 06:54 Mostly Clear 43 6.1 -4 -20 13 13 NNW 10 17 30.29 1026 10 16 0.00 0.00
7:54 am 07:54 Partly Cloudy 42 5.6 -4 -20 14 14 VRB 6 9 30.32 1027 10 16 0.00 0.00
8:54 am 08:54 Partly Cloudy 46 7.8 3 -16.1 17 17 NW 5 7 30.32 1027 10 16 0.00 0.00
9:54 am 09:54 Mostly Cloudy 56 13.3 -1 -18.3 9 9 VRB 3 6 30.27 1025 10 16 0.00 0.00
10:54 am 10:54 Mostly Cloudy 58 14.4 -3 -19.4 8 8 SE 5 7 30.29 1026 10 16 0.00 0.00
11:54 am 11:54 Mostly Cloudy 60 15.6 -8 -22.2 6 6 E 7 11 30.29 1026 10 16 0.00 0.00
12:54 pm 12:54 Mostly Cloudy 60 15.6 -9 -22.8 5 5 SE 6 9 30.27 1025 10 16 0.00 0.00
1:54 pm 13:54 Mostly Cloudy 60 15.6 -12 -24.4 5 5 SE 9 15 30.24 1024 10 16 0.00 0.00
2:54 pm 14:54 Partly Cloudy 59 15 -10 -23.3 5 5 SSE 16 26 30.19 1023 10 16 0.00 0.00
3:54 pm 15:54 Mostly Sunny 56 13.3 -9 -22.8 6 6 SSE 16 26 30.21 1023 10 16 0.00 0.00
4:54 pm 16:54 Mostly Sunny 48 8.9 2 -16.7 15 15 SE 14 22 30.25 1025 10 16 0.00 0.00
5:54 pm 17:54 Mostly Clear 42 5.6 4 -15.6 20 20 S 6 9 30.32 1027 10 16 0.00 0.00
6:54 pm 18:54 Clear 40 4.4 6 -14.4 24 24 S 8 13 30.31 1026 10 16 0.00 0.00
7:54 pm 19:54 Clear 39 3.9 7 -13.9 26 26 SSE 10 17 30.32 1027 10 16 0.00 0.00
8:54 pm 20:54 Clear 35 1.7 7 -13.9 31 31 SSE 7 11 30.31 1026 10 16 0.00 0.00
9:54 pm 21:54 Mostly Clear 33 0.6 10 -12.2 38 38 SSE 7 11 30.28 1025 10 16 0.00 0.00
10:54 pm 22:54 Partly Cloudy 34 1.1 9 -12.8 35 35 S 6 9 30.25 1025 10 16 0.00 0.00
11:54 pm 23:54 Partly Cloudy 29 -1.7 9 -12.8 43 43 NE 5 7 30.25 1025 10 16 0.00 0.00

Powered by AerisWeather